Retour au catalogue

COSMOS 1275 DEB

ActifPO
NORAD 42156·DEBRIS·🇷🇺 Russia

Lancé Jun 4, 1981 depuis Plesetsk Cosmodrome

Loading…

Prochains Passages (prochaines 24 heures)

TLE

FraisSource: Space-Track

Époque: Sep 14, 2026, 09:47 UTC

1 42156U 81053RU  26257.40790534  .00001767  00000-0  92497-3 0  9994
2 42156  82.7431 316.3895 0048485 271.1491  88.4131 14.13256765641718

Suivez COSMOS 1275 DEB en temps réel avec AllMySat

Download on the App Store